Weather in Marilia

Brazil     22°13′00″S   49°56′48″W
temp.,
°C
wind,
m/s
gust,
m/s
humid.,
%
clouds,
%
prec.,
mm/h
press.,
hPa
HPBL,
m
22 january, sat
sat2200:00+24ene117021 0.0 101212
03:00+23ese227268 0.0 101132
06:00+21e11808 0.1 101314
09:00+28e23563 0.1 1014627
12:00+33ene21411 0.0 10131902
15:00+29se1156100 0.1 101130
18:00+28n1156100 0.0 101018
21:00+26e11580 0.0 101115
23 january, sun
sun2300:00+24e22710 0.0 101222
03:00+23e22750 0.0 101021
06:00+21ese11750 0.0 101214
09:00+28ene23530 0.0 1013549
12:00+34nne224257 0.0 10122183
15:00+29nne236159 0.2 1011250
18:00+29n23590 0.0 1009233
21:00+25ene11680 0.0 101011
24 january, mon
mon2400:00+24ne22780 0.0 101116
03:00+22ne11851 0.0 101013
06:00+21e11870 0.0 101211
09:00+29ene22580 0.0 1013597
12:00+33nne234145 0.0 10112289
15:00+35nne1335100 0.0 10082575
18:00+29nne14591 0.3 1007189
21:00+26ne22577 0.3 100815
25 january, tue
tue2500:00+23ne26720 0.0 1010135
03:00+22ene118049 0.0 101011
06:00+22ene118096 0.0 101111
09:00+28ne235718 0.0 1012621
12:00+33n333862 0.0 10102568
15:00+34e123444 0.0 10072411
18:00+31ne364416 0.0 1006334
21:00+26ene25623 0.0 1008131
26 january, wed
wed2600:00+24ene236791 0.0 100943
03:00+22ne117799 0.1 100917
06:00+21e228281 0.1 101023
09:00+28nne455929 0.1 1011626
12:00+32n444521 0.0 10101716
15:00+32nw234232 0.1 10061753
18:00+25e237055 1.8 100679
21:00+23ne117832 2.0 100711